     2              OBSERVATION DATA    GPS                 RINEX VERSION / TYPE
teqc 1997Sep28 Simon McClusky 97/12/31                      PGM / RUN BY / DATE
                                                            COMMENT
BIT 2 OF LLI FLAGS DATA COLLECTED UNDER A-S CONDITION       COMMENT
BIT 2 OF LLI FLAGS DATA COLLECTED UNDER A-S CONDITION       COMMENT
Original Marker Name: GS26                                  COMMENT
Campaign Name: China Lake Nov 1997                          COMMENT
4-Character Station Name: GS26                              COMMENT
6-Character Antenna Code: ASHGD3                            COMMENT
Vertical Measurement Point: TGP                             COMMENT
Vertical Offset to Rinex Ref. Point: 0.0640                 COMMENT
Radial Measurement Point: RRP                               COMMENT
Radial Offset to Rinex Ref. Point: 0.0000                   COMMENT
Antenna Height from Field Measurement: 0.2490 m             COMMENT
Additional Antenna Identification Info.:                    COMMENT
The Whopper (700718AB)                                      COMMENT
Original XYZ: -2396939.3100 -4596036.9400 3705218.8000      COMMENT
New XYZ position is based on association with SCEC monument COMMENT
E1F4E5C5+0011. Position of that monument is believed to be  COMMENT
valid to within 1 m horizontally; vertical accuracy         COMMENT
should be no worse than 3-times this value.                 COMMENT
                                                            COMMENT
Revised Rinex header created by UCSD GPS archive for        COMMENT
GSAC on 01-Aug-2000 (2000:214) 04:54:57 GMT                 COMMENT
For assistance contact dagnew@ucsd.edu                      COMMENT
or anderson@python.ucsd.edu                                 COMMENT
                                                            COMMENT
GO26                                                        MARKER NAME
_BT US NATIONAL IMAGERY MAPPING AGENCY                      OBSERVER / AGENCY
434 ASHTECH Z-XII3 1G00                                     REC # / TYPE / VERS
103 ASHTECH GEODETIC III                                    ANT # / TYPE
 -2396838.6623 -4596051.7826  3705242.6498                  APPROX POSITION XYZ
        0.1850        0.0000        0.0000                  ANTENNA: DELTA H/E/N
     1     1     0                                          WAVELENGTH FACT L1/2
     5    L1    L2    C1    P2    P1                        # / TYPES OF OBSERV
    30                                                      INTERVAL
  1997    11    19    16    26    0.000000                  TIME OF FIRST OBS
  1997    11    19    22    31   60.000000                  TIME OF LAST OBS
                                                            END OF HEADER
 97 11 19 16 26  0.0000000  0  8G 1G21G 3G15G31G29G25G23
      5590.13647                  20120553.092    20120561.230
      7140.29557                  20898022.161    20898029.829
                                  23413002.674
                                  22679364.482
     18998.89056                  22853886.885    22853900.309
    -42879.94057                  21652568.812    21652578.265
    -56077.31156                  22496948.838    22496961.562
                                  23618699.728
 97 11 19 16 26 30.0000000  0  8G 1G21G 3G15G31G29G25G23
     17981.20549     12172.98447  20122159.648    20122168.889    20122162.528
     25673.42849     17753.90847  20900614.619    20900621.739    20900615.302
     62158.22446                  23427107.204    23427120.902
   -213071.56949   -148867.53646  22657703.243    22657705.736    22657698.376
     67478.92249     47264.01546  22860786.840    22860802.679    22860794.406
   -154127.30849   -106080.54747  21637135.470    21637144.035    21637137.952
   -202682.20049   -138865.12146  22476730.013    22476742.572
  22476734.685                    23628127.831
 97 11 19 16 26 59.9990000  0  8G 1G21G 3G15G31G29G25G23
     26775.41949     19025.61347  20123834.107    20123842.377    20123836.073
     39440.88249     28481.78047  20903233.437    20903241.641    20903235.148
    170846.65049    119956.30046  23441222.708    23441234.840    23441227.329
   -326815.89249   -237499.48046  22636055.250    22636060.764    22636053.902
    104090.04149     75792.13046  22867761.925    22867769.553    22867761.462
   -234965.60149   -169071.40447  21621752.327    21621761.001    21621755.010
   -308791.65249   -221547.82446  22456541.466    22456550.495    22456542.798
    142732.42849    103396.52245  23637565.356    23637577.020    23637568.121
 97 11 19 16 27 29.9990000  0  8G 1G21G 3G15G31G29G25G23
     35965.60349     26186.79147  20125581.226    20125591.231    20125584.923
     53407.37459     39364.75457  20905890.760    20905899.405    20905892.842
    245096.36559    177813.15556  23455357.311    23455364.074    23455356.309
   -440370.64559   -325983.69456  22614452.396    22614452.009    22614445.156
    141078.79759    104614.49856  22874790.963    22874808.273    22874800.309
   -315497.07359   -231823.17757  21606428.536    21606436.370    21606430.391
   -414723.84059   -304092.39956  22436383.882    22436392.268    22436384.647
    192409.48259    142105.89755  23647027.189    23647029.485    23647021.702
 97 11 19 16 27 59.9990000  0  8G 1G21G 3G15G31G29G25G23
     45563.35549     33665.55047  20127408.448    20127417.626    20127411.357
     67587.39849     50414.11747  20908589.131    20908597.786    20908591.214
    319441.97149    235744.72646  23469505.858    23469511.642    23469503.664
   -553712.50349   -414302.02446  22592879.765    22592883.768    22592876.856
    178460.28449    133742.90046  22881908.000    22881921.769    22881913.864
   -395696.61949   -294316.31747  21591166.771    21591174.912    21591168.931
   -520444.54549   -386472.18246  22416265.514    22416274.284    22416266.757
    242189.82349    180895.71845  23656496.671    23656502.471    23656494.696
 97 11 19 16 28 29.9990000  0  8G 1G21G 3G15G31G29G25G23
     55570.46549     41463.29247  20129313.121    20129321.933    20129315.679
     82003.29649     61647.27047  20911332.568    20911341.047    20911334.490
    393904.62849    293767.52246  23483673.351    23483681.532    23483673.410
   -666822.75849   -502439.86046  22571353.530    22571359.591    22571352.627
    216249.46749    163188.98846  22889100.494    22889112.871    22889104.914
   -475548.99949   -356538.93247  21575971.290    21575979.477    21575973.585
   -625921.01349   -468661.64946  22396193.727    22396202.762    22396195.306
    292087.40949    219776.95245  23665989.972    23665997.668    23665989.908
 97 11 19 16 28 59.9990000  0  8G 1G21G 3G15G31G29G25G23
     66005.84649     49594.74847  20131299.026    20131307.736    20131301.487
     96678.10249     73082.16847  20914125.186    20914133.615    20914127.049
    468509.30949    351900.97846  23497869.495    23497878.480    23497870.251
   -779675.76449   -590377.25346  22549877.437    22549884.403    22549877.324
    254474.43449    192974.63346  22896375.203    22896386.915    22896378.917
   -555027.92349   -418470.54547  21560846.932    21560855.091    21560849.275
   -731103.32749   -550621.90646  22376178.007    22376187.202    22376179.821
    342115.34549    258759.72945  23675509.236    23675517.686    23675509.920
 97 11 19 16 29 29.9990000  0  8G 1G21G 3G15G31G29G25G23
     76871.30749     58061.33047  20133366.729    20133375.360    20133369.124
    111612.08149     84719.02447  20916967.097    20916975.496    20916968.917
    543255.74949    410144.91346  23512092.915    23512102.339    23512094.049
   -892273.03349   -678115.36246  22528450.212    22528457.876    22528450.721
    293120.67949    223088.55046  22903729.815    22903741.121    22903733.131
   -634133.03149   -480110.87047  21545793.691    21545801.847    21545796.056
   -835990.27249   -632351.99746  22356218.615    22356227.850    22356220.567
    392287.19749    297854.62045  23685056.316    23685065.081    23685057.259
 97 11 19 16 29 59.9990000  0  8G 1G21G 3G15G31G29G25G23
     88178.96349     66872.48147  20135518.545    20135527.130    20135520.909
    126817.89249     96567.68747  20919860.734    20919869.107    20919862.516
    618151.46849    468505.13846  23526345.059    23526354.616    23526346.298
  -1004597.55849   -765640.92646  22507075.202    22507083.267    22507076.080
    332198.89949    253539.06146  22911166.600    22911177.504    22911169.548
   -712865.91849   -541461.15647  21530811.372    21530819.491    21530813.734
   -940575.26649   -713846.83146  22336316.689    22336325.967    22336318.818
    442634.99049    337086.63845  23694636.937    23694645.930    23694638.179
 97 11 19 16 30 29.9990000  0  8G 1G21G 3G15G31G29G25G23
     99931.94649     76030.64047  20137755.200    20137763.671    20137757.475
    142304.45149    108635.11547  20922807.735    20922816.139    20922809.534
    693185.10849    526972.83346  23540623.259    23540632.978    23540624.756
  -1116643.48249   -852949.41446  22485753.308    22485761.632    22485754.466
    371707.37049    284324.82546  22918685.153    22918695.738    22918687.903
   -791231.87449   -602525.52847  21515898.802    21515907.005    21515901.213
  -1044864.84549   -795111.47446  22316471.037    22316480.306    22316473.257
    493156.57249    376454.09445  23704250.489    23704259.935    23704252.178
 97 11 19 16 30 59.9990000  0  8G 1G21G 3G15G31G29G25G23
    112161.76249     85560.36847  20140082.511    20140090.963    20140084.738
    158079.21749    120927.11647  20925809.571    20925817.999    20925811.416
    768349.73949    585542.62146  23554926.505    23554936.314    23554928.107
  -1228392.66749   -940026.66146  22464488.017    22464496.437    22464489.337
    411651.34849    315449.95546  22926286.513    22926296.856    22926289.150
   -869210.88549   -663288.37647  21501059.936    21501068.133    21501062.339
  -1148862.88549   -876148.92246  22296680.867    22296690.130    22296683.096
    543865.08249    415967.22145  23713900.034    23713909.521    23713901.834
 97 11 19 16 31 29.9990000  0  8G 1G21G 3G15G31G29G25G23
    124872.57849     95464.89947  20142501.328    20142509.799    20142503.564
    174150.99849    133450.55447  20928867.917    20928876.414    20928869.821
    843630.47449    644202.87145  23569251.899    23569261.711    23569253.503
  -1339845.40949  -1026872.90946  22443279.076    22443287.636    22443280.549
    452022.88449    346908.23546  22933969.173    22933979.345    22933971.697
   -946803.92749   -723750.46247  21486294.523    21486302.707    21486296.919
  -1252593.42849   -956977.93546  22276941.514    22276950.945    22276943.794
    594753.38549    455620.40945  23723583.899    23723593.287    23723585.632
 97 11 19 16 31 59.9990000  0  8G 1G21G 3G15G31G29G25G23
    138062.69549    105742.91347  20145011.386    20145019.824    20145013.588
    190536.13349    146218.15947  20931985.972    20931994.482    20931987.839
    919026.13749    702952.67546  23583598.987    23583609.025    23583600.820
  -1450987.32149  -1113476.96846  22422129.296    22422137.989    22422130.921
    492842.77049    378715.89246  22941737.323    22941747.142    22941739.583
  -1023997.73349   -783901.45847  21471604.981    21471613.186    21471607.411
  -1356050.55849  -1037593.88646  22257254.390    22257263.764    22257256.601
    645809.62449    495404.46545  23733299.657    23733309.042    23733301.481
 97 11 19 16 32 29.9990000  0  8G 1G21G 3G15G31G29G25G23
    151716.91649    116382.56247  20147609.730    20147618.151    20147611.897
    207232.37849    159228.18447  20935163.271    20935171.718    20935165.104
    994522.73049    761781.12645  23597965.337    23597975.637    23597967.349
  -1561819.32749  -1199839.53346  22401038.644    22401047.343    22401040.266
    534102.20149    410866.04346  22949588.950    22949598.592    22949591.123
  -1100784.34249   -843735.14947  21456992.924    21457001.152    21456995.390
  -1459232.67349  -1117995.52946  22237619.521    22237628.938    22237621.781
    697014.68249    535304.48545  23743043.681    23743053.133    23743045.458
 97 11 19 16 32 59.9990000  0  8G 1G21G 3G15G31G29G25G23
    165827.17349    127377.57047  20150294.850    20150303.254    20150297.025
    224234.03349    172476.19747  20938398.659    20938407.094    20938400.480
   1070117.04949    820685.72345  23612350.331    23612360.859    23612352.384
  -1672340.83649  -1285960.14746  22380006.960    22380015.793    22380008.752
    575798.47249    443356.58946  22957523.593    22957533.091    22957525.709
  -1177154.04749   -903243.98647  21442460.235    21442468.434    21442462.712
  -1562133.96449  -1198178.33546  22218038.110    22218047.542    22218040.364
    748377.66549    575327.56545  23752817.712    23752827.236    23752819.495
 97 11 19 16 33 29.9990000  0  8G 1G21G 3G15G31G29G25G23
    180380.61349    138717.91247  20153064.320    20153072.707    20153066.485
    241573.56949    185987.49647  20941698.281    20941706.716    20941700.140
   1145846.49649    879695.60745  23626761.046    23626771.800    23626763.205
  -1782525.81449  -1371818.54246  22359039.519    22359048.281    22359041.263
    617954.64349    476205.50746  22965545.769    22965555.117    22965547.779
  -1253086.10549   -962411.79747  21428010.801    21428019.007    21428013.273
  -1664703.76449  -1278102.82546  22198519.683    22198529.212    22198522.016
    799936.68749    615503.40945  23762629.183    23762638.599    23762630.907
 97 11 19 16 33 59.9980000  0  8G 1G21G 3G15G31G29G25G23
    195356.70249    150387.58747  20155914.258    20155922.561    20155916.373
    259241.43549    199754.64147  20945060.372    20945068.858    20945062.285
   1221710.16049    938810.07845  23641197.529    23641208.192    23641199.726
  -1892370.52249  -1457411.76346  22338136.731    22338145.544    22338138.550
    660563.47449    509407.15246  22973654.046    22973663.326    22973656.067
  -1328570.61649  -1021230.86447  21413646.549    21413654.788    21413649.012
  -1766931.95849  -1357761.12046  22179066.306    22179075.817    22179068.642
    851698.19549    655837.02045  23772479.116    23772488.581    23772480.896
 97 11 19 16 34 29.9980000  0  8G 1G21G 3G15G31G29G25G23
    210766.41049    162395.14547  20158846.600    20158854.921    20158848.735
    277234.85649    213775.46247  20948484.446    20948492.938    20948486.372
   1297717.77449    998036.73445  23655661.290    23655671.976    23655663.563
  -2001879.41249  -1542743.33146  22317297.814    22317306.674    22317299.710
    703621.46449    542958.77746  22981847.714    22981857.048    22981849.824
  -1403607.36449  -1079701.03047  21399367.513    21399375.799    21399369.983
  -1868808.47549  -1437145.36546  22159679.770    22159689.331    22159682.182
    903676.31049    696339.42345  23782370.214    23782379.636    23782372.075
 97 11 19 16 34 59.9980000  0  8G 1G21G 3G15G31G29G25G23
    226623.34149    174751.18747  20161864.040    20161872.375    20161866.209
    295558.88049    228053.89447  20951971.427    20951979.873    20951973.329
   1373884.52749   1057387.37745  23670155.401    23670165.987    23670157.702
  -2111041.08349  -1627804.32846  22296525.104    22296533.927    22296526.965
    747131.91949    576862.98246  22990127.592    22990136.880    22990129.668
  -1478196.82749  -1137822.65747  21385173.563    21385181.928    21385176.021
  -1970305.26449  -1516233.71646  22140365.639    22140375.022    22140367.961
    955872.21349    737011.53645  23792302.591    23792312.466    23792304.736
 97 11 19 16 35 29.9980000  0  8G 1G21G 3G15G31G29G25G23
    242941.67549    187466.76847  20164969.436    20164977.649    20164971.530
    314221.94649    242596.52147  20955522.892    20955531.376    20955524.792
   1450210.46549   1116862.06345  23684679.578    23684690.387    23684682.150
  -2219847.98049  -1712588.88646  22275819.898    22275828.653    22275821.683
    791099.47249    611123.37446  22998494.463    22998503.696    22998496.456
  -1552359.43649  -1195611.68247  21371060.808    21371069.236    21371063.308
  -2071416.84149  -1595021.90547  22121124.798    22121134.044    22121127.144
   1008278.90149    777847.88045  23802275.661    23802285.181    23802277.483
 97 11 19 16 35 59.9980000  0  8G 1G21G 3G15G31G29G25G23
    259753.55349    200566.93147  20168168.624    20168176.856    20168170.766
    333223.71249    257403.06747  20959138.810    20959147.327    20959140.717
   1526684.62849   1176452.25945  23699232.417    23699242.921    23699234.835
  -2328299.63549  -1797096.63146  22255182.243    22255191.011    22255184.014
    835524.17749    645739.97546  23006948.321    23006957.483    23006950.255
  -1626110.24849  -1253079.82847  21357026.442    21357034.923    21357028.967
  -2172158.78849  -1673522.06147  22101954.386    22101963.442    22101956.645
   1060881.33149    818836.74045  23812285.279    23812295.202    23812287.484
 97 11 19 16 36 29.9980000  0  8G 1G21G 3G15G31G29G25G23
    277083.23249    214070.57447  20171466.368    20171474.618    20171468.519
    352575.34649    272482.24047  20962821.399    20962829.870    20962823.245
   1603308.09449   1236158.78945  23713813.485    23713823.841    23713815.885
  -2436385.56649  -1881319.40446  22234613.988    22234622.923    22234615.903
    880410.42349    680716.22646  23015490.013    23015499.097    23015491.919
  -1699458.80849  -1310234.53147  21343068.624    21343077.230    21343071.134
  -2272525.02349  -1751729.45547  22082855.291    22082864.362    22082857.579
   1113684.18349    859981.76945  23822333.330    23822343.253    23822335.473
 97 11 19 16 36 59.9980000  0  8G 1G21G 3G15G31G29G25G23
    294918.36349    227968.07547  20174860.335    20174868.553    20174862.461
    372280.61949    287836.98347  20966571.203    20966579.718    20966573.069
   1680069.18549   1295972.55445  23728420.807    23728430.892    23728423.124
  -2544106.02849  -1965257.40746  22214115.357    22214124.407    22214117.343
    925750.79049    716046.33546  23024117.909    23024127.075    23024119.978
  -1772415.48649  -1367083.88047  21329185.351    21329194.118    21329187.928
  -2372538.13249  -1829661.67447  22063823.412    22063832.510    22063825.723
   1166687.31149    901282.84145  23832419.659    23832429.463    23832421.783
 97 11 19 16 37 29.9980000  0  8G 1G21G 3G15G31G29G25G23
    313247.81949    242250.76147  20178348.318    20178356.550    20178350.434
    392339.92149    303467.59147  20970388.312    20970396.931    20970390.284
   1756956.79549   1355884.91545  23743052.274    23743062.162    23743054.511
  -2651464.38749  -2048913.24546  22193685.677    22193694.809    22193687.748
    971535.56349    751722.74346  23032830.590    23032839.706    23032832.594
  -1844977.12249  -1423625.40847  21315377.295    21315386.121    21315379.881
  -2472224.69349  -1907339.44447  22044853.624    22044862.775    22044855.943
   1219896.89849    942744.79945  23842545.216    23842554.892    23842547.127
 97 11 19 16 37 59.9980000  0  8G 1G21G 3G15G31G29G25G23
    332055.37649    256905.99847  20181927.187    20181935.522    20181929.385
    412759.27849    319378.76647  20974274.009    20974282.586    20974275.996
   1833971.25249   1415896.10445  23757707.732    23757717.549    23757709.966
  -2758453.75949  -2132281.57446  22173326.377    22173335.454    22173328.351
   1017766.44649    787746.76946  23041628.046    23041637.208    23041630.075
  -1917115.17049  -1479836.87047  21301649.846    21301658.714    21301652.435
  -2571574.73049  -1984754.99147  22025947.812    22025957.055    22025950.237
   1273320.25949    984373.33545  23852711.429    23852721.075    23852713.184
 97 11 19 16 38 29.9980000  0  8G 1G21G 3G15G31G29G25G23
    351315.00949    271913.49947  20185592.268    20185600.502    20185594.414
    433511.83549    335549.58547  20978223.137    20978231.646    20978225.120
   1911098.08949   1475994.87645  23772384.556    23772394.312    23772386.797
  -2865074.92649  -2215362.99846  22153037.123    22153046.153    22153039.048
   1064433.44449    824110.63446  23050508.464    23050517.695    23050510.599
  -1988816.76849  -1535708.24347  21288005.451    21288014.353    21288008.052
  -2670570.21749  -2061894.26847  22007109.497    22007118.803    22007112.019
   1326961.12949   1026171.35945  23862918.750    23862928.554    23862920.810
 97 11 19 16 38 59.9980000  0  8G 1G21G 3G15G31G29G25G23
    371007.89649    287258.59947  20189339.766    20189347.929    20189341.881
    454586.01549    351971.01547  20982233.528    20982241.909    20982235.448
   1988340.99349   1536184.08145  23787083.421    23787093.353    23787085.675
  -2971322.55149  -2298153.33146  22132818.789    22132827.975    22132820.765
   1111533.97449    860812.31046  23059471.593    23059480.643    23059473.594
  -2060072.50449  -1591232.18947  21274445.845    21274454.853    21274448.507
  -2769195.61849  -2138745.16747  21988341.756    21988350.942    21988344.203
   1380817.30249   1068137.17145  23873166.904    23873177.188    23873169.094
 97 11 19 16 39 29.9980000  0  8G 1G21G 3G15G31G29G25G23
    391126.21849    302935.20747  20193168.208    20193176.322    20193170.324
    475955.67249    368622.68947  20986299.988    20986308.395    20986301.980
   2065695.46649   1596460.22045  23801803.665    23801813.532    23801805.826
  -3077208.00649  -2380661.46546  22112669.385    22112678.731    22112671.443
   1159049.87249    897837.66546  23068513.514    23068522.569    23068515.593
  -2130882.58249  -1646408.86947  21260971.104    21260980.171    21260973.759
  -2867450.40949  -2215307.27247  21969644.473    21969653.635    21969646.917
   1434877.66749   1110262.07245  23883453.977    23883464.751    23883456.396
 97 11 19 16 39 59.9980000  0  8G 1G21G 3G15G31G29G25G23
    411680.87649    318951.81847  20197079.620    20197087.727    20197081.755
    497607.80749    385494.47847  20990420.384    20990428.639    20990422.263
   2143147.33549   1656812.27145  23816542.209    23816552.328    23816544.546
  -3182730.60749  -2462886.84946  22092589.034    22092598.525    22092591.166
   1206980.07149    935185.83246  23077634.295    23077643.396    23077636.498
  -2201248.87749  -1701239.74347  21247580.825    21247589.914    21247583.500
  -2965325.20049  -2291573.28147  21951019.447    21951028.640    21951021.938
   1489134.65249   1152540.17145  23893779.209    23893789.501    23893781.086
 97 11 19 16 40 29.9980000  0  8G 1G21G 3G15G31G29G25G23
    432704.24849    335333.66347  20201080.272    20201088.357    20201082.382
    519555.82949    402596.82747  20994596.965    20994605.228    20994598.814
   2220713.04549   1717253.03345  23831302.472    23831312.786    23831304.885
  -3287875.19349  -2544817.67346  22072580.740    22072590.195    22072582.795
   1255335.63149    972865.45446  23086836.257    23086845.148    23086838.364
  -2271171.96749  -1755725.25747  21234274.860    21234284.013    21234277.566
  -3062804.29849  -2367530.95947  21932469.820    21932478.925    21932472.232
   1543607.50249   1194986.47045  23904145.127    23904155.451    23904147.204
 97 11 19 16 40 59.9980000  0  8G 1G21G 3G15G31G29G25G23
    454214.09049    352094.56847  20205173.499    20205181.554    20205175.591
    541838.53149    419959.96347  20998837.148    20998845.526    20998839.080
   2298410.38449   1777796.33146  23846087.831    23846098.294    23846090.199
  -3392634.41749  -2626448.19746  22052645.720    22052655.175    22052647.734
   1304122.27149   1010880.99046  23096120.218    23096128.920    23096122.251
  -2340653.43849  -1809866.64447  21221052.987    21221062.109    21221055.683
  -3159892.13549  -2443183.75847  21913994.488    21914003.639    21913996.987
   1598298.92749   1237603.08845  23914552.064    23914562.993    23914554.507
 97 11 19 16 41 29.9980000  0  8G 1G21G 3G15G31G29G25G23
    476222.99949    369244.35047  20209361.596    20209369.765    20209363.770
    564480.60749    437603.12347  21003145.919    21003154.235    21003147.766
   2376218.87849   1838426.26046  23860894.238    23860904.889    23860896.751
  -3497006.81149  -2707777.31446  22032784.285    22032793.756    22032786.286
   1353347.05349   1049237.92846  23105487.495    23105496.122    23105489.480
  -2409699.91749  -1863669.08147  21207913.979    21207922.995    21207916.629
  -3256586.66149  -2518530.08547  21895594.082    21895603.217    21895596.590
   1653206.92949   1280388.46945  23925001.084    23925011.490    23925003.208
 97 11 19 16 41 59.9980000  0  8G 1G21G 3G15G31G29G25G23
    498685.80549    386747.81947  20213636.217    20213644.330    20213638.307
    587478.35649    455523.43147  21007522.301    21007530.639    21007524.158
   2454101.01249   1899113.57446  23875714.834    23875725.478    23875717.311
  -3601006.66849  -2788816.13446  22012993.706    22013003.259    22012995.760
   1402997.46549   1087926.52646  23114935.721    23114944.271    23114937.700
  -2478349.15749  -1917161.97147  21194850.483    21194859.457    21194853.152
  -3352891.84749  -2593573.03447  21877267.798    21877276.889    21877270.284
   1708307.15149   1323323.63945  23935486.594    23935496.830    23935488.591
 97 11 19 16 42 29.9980000  0  8G 1G21G 3G15G31G29G25G23
    521570.22049    404579.81547  20217990.959    20217999.109    20217993.066
    610836.17849    473724.31747  21011967.176    21011975.567    21011969.064
   2532063.52649   1959863.51246  23890550.700    23890561.333    23890553.188
  -3704628.79649  -2869560.61146  21993274.955    21993284.645    21993277.079
   1453067.72549   1126942.27246  23124463.937    23124472.382    23124465.828
  -2546593.05749  -1970339.01047  21181864.129    21181873.021    21181866.789
  -3448805.00149  -2668310.50247  21859016.092    21859025.136    21859018.554
   1763594.03849   1366404.24445  23946007.566    23946017.709    23946009.304
 97 11 19 16 42 59.9980000  0  8G 1G21G 3G15G31G29G25G23
    544859.21549    422727.07147  20222422.708    20222430.918    20222424.802
    634549.53349    492202.24847  21016479.739    21016488.114    21016481.595
   2610091.11549   2020664.18046  23905399.004    23905409.595    23905401.493
  -3807865.96249  -2950005.11746  21973629.531    21973639.255    21973631.643
   1503557.14449   1166284.62946  23134072.048    23134080.221    23134073.726
  -2614416.90749  -2023188.74047  21168957.718    21168966.523    21168960.348
  -3544334.51249  -2742749.03747  21840837.382    21840846.387    21840839.837
   1819065.43349   1409628.62245  23956563.803    23956573.771    23956565.385
 97 11 19 16 43 29.9980000  0  8G 1G21G 3G15G31G29G25G23
    568521.59749    441165.28247  20226925.511    20226933.740    20226927.629
    658584.72649    510930.96747  21021053.453    21021061.880    21021055.367
   2688154.13249   2081492.43846  23920254.266    23920264.605    23920256.564
  -3910728.55249  -3030157.75246  21954055.356    21954065.109    21954057.531
   1554441.98949   1205935.11346  23143755.022    23143763.255    23143756.887
  -2681832.08149  -2075720.01147  21156129.068    21156137.797    21156131.716
  -3639498.18649  -2816902.51247  21822728.347    21822737.263    21822730.751
   1874710.21749   1452988.12745  23967152.958    23967162.757    23967154.396
 97 11 19 16 43 59.9980000  0  8G 1G21G 3G15G31G29G25G23
    592552.26549    459890.47247  20231498.405    20231506.637    20231500.520
    682907.50849    529883.77147  21025681.783    21025690.417    21025683.839
   2766259.54949   2142353.74046  23935117.362    23935127.681    23935119.588
  -4013219.68449  -3110020.93746  21934551.990    21934561.616    21934554.139
   1605692.68849   1245870.69046  23153507.844    23153515.928    23153509.638
  -2748830.40749  -2127926.46847  21143379.750    21143388.369    21143382.405
  -3734315.36549  -2890785.99047  21804685.040    21804694.077    21804687.589
   1930531.90549   1496485.47145  23977775.444    23977785.357    23977776.946
 97 11 19 16 44 29.9980000  0  8G 1G21G 3G15G31G29G25G23
    616980.09049    478925.13347  20236146.859    20236155.118    20236148.994
    707511.42149    549055.64647  21030363.821    21030372.438    21030365.822
   2844404.64349   2203245.95646  23949987.837    23949998.228    23949990.054
  -4115340.80149  -3189595.81146  21915118.944    21915128.553    21915121.135
   1657283.75449   1286071.49246  23163325.344    23163333.447    23163327.123
  -2815406.97549  -2179804.27247  21130710.645    21130719.194    21130713.303
  -3828803.24149  -2964412.87647  21786704.595    21786713.548    21786707.075
   1986527.48549   1540118.31045  23988431.113    23988440.965    23988432.673
 97 11 19 16 44 59.9980000  0  8G 1G21G 3G15G31G29G25G23
    641827.94149    498287.09047  20240875.248    20240883.526    20240877.417
    732403.21249    568451.82047  21035100.635    21035109.205    21035102.570
   2922584.96649   2264165.61746  23964865.085    23964875.584    23964867.308
  -4217098.11649  -3268887.20046  21895755.202    21895764.702    21895757.329
   1709194.55249   1326521.42746  23173203.689    23173211.803    23173205.451
  -2881582.54049  -2231369.61047  21118117.916    21118126.364    21118120.542
  -3922961.25449  -3037782.73147  21768786.850    21768795.802    21768789.356
   2042701.24049   1583890.02845  23999120.382    23999130.419    23999122.266
 97 11 19 16 45 29.9980000  0  8G 1G21G 3G15G31G29G25G23
    667120.22049    517995.35247  20245688.255    20245696.483    20245690.409
    757599.72249    588085.46047  21039895.352    21039903.955    21039897.309
   3000832.81049   2325137.90146  23979755.112    23979765.753    23979757.384
  -4318478.48349  -3347884.86546  21876463.179    21876472.589    21876465.258
   1761422.45549   1367218.44946  23183142.367    23183150.436    23183144.131
  -2947346.04649  -2282613.85647  21105603.568    21105611.954    21105606.159
  -4016754.85849  -3110868.63047  21750938.512    21750947.431    21750941.012
   2099065.66749   1627810.28245  24009846.085    24009856.193    24009848.232
 97 11 19 16 45 59.9980000  0  8G 1G21G 3G15G31G29G25G23
    692874.33649    538063.49047  20250589.128    20250597.331    20250591.297
    783126.54149    607976.48047  21044752.959    21044761.549    21044754.901
   3079169.48649   2386179.40546  23994662.032    23994672.825    23994664.375
  -4419467.34249  -3426577.46346  21857245.612    21857254.963    21857247.707
   1813986.40949   1408177.33746  23193145.087    23193152.996    23193146.714
  -3012682.91449  -2333525.65747  21093170.355    21093178.688    21093172.943
  -4110151.93649  -3183645.55147  21733165.577    21733174.506    21733168.116
   2155629.73648   1671886.10145  24020609.934    24020620.386    24020612.061
 97 11 19 16 46 29.9980000  0  8G 1G21G 3G15G31G29G25G23
    719070.09949    558475.76647  20255574.060    20255582.200    20255576.214
    809008.40449    628144.15847  21049678.078    21049686.723    21049680.120
   3157596.35949   2447291.18446  24009586.282    24009597.092    24009588.580
  -4520063.88549  -3504964.35946  21838102.753    21838112.004    21838104.793
   1866903.36349   1449411.27746  23203214.859    23203222.796    23203216.542
  -3077602.40149  -2384112.22147  21080816.580    21080824.849    21080819.145
  -4203131.27249  -3256096.96247  21715472.275    21715481.077    21715474.741
   2212390.83648   1716115.45045  24031410.972    24031421.609    24031413.496
 97 11 19 16 46 59.9980000  0  8G 1G21G 3G15G31G29G25G23
    745663.19049    579197.65847  20260634.582    20260642.675    20260636.734
    835211.65049    648562.26547  21054664.462    21054673.028    21054666.455
   3236092.42549   2508456.88246  24024523.658    24024534.463    24024525.943
  -4620286.21249  -3583059.64946  21819030.964    21819040.232    21819033.051
   1920172.61149   1490919.73946  23213351.539    23213359.585    23213353.347
  -3142118.41549  -2434384.38947  21068539.548    21068547.805    21068542.126
  -4295697.82449  -3328226.72847  21697857.472    21697866.185    21697859.880
   2269332.43558   1760485.42955  24042245.985    24042257.041    24042248.699
 97 11 19 16 47 29.9980000  0  8G 1G21G 3G15G31G29G25G23
    772635.28449    600214.88147  20265767.249    20265775.283    20265769.391
    861725.29449    669222.24347  21059709.845    21059718.410    21059711.869
   3314638.06849   2569661.19946  24039470.494    24039481.295    24039472.684
  -4720125.66449  -3660856.59946  21800032.142    21800041.330    21800034.203
   1973812.24449   1532716.81146  23223558.824    23223566.876    23223560.602
  -3206221.46949  -2484334.76947  21056341.089    21056349.324    21056343.692
  -4387847.16149  -3400031.39447  21680322.047    21680330.694    21680324.440
   2326460.26648   1805000.54145  24053117.422    24053127.969    24053119.822
 97 11 19 16 47 59.9980000  0  8G 1G21G 3G15G31G29G25G23
    799974.68349    621518.32047  20270969.822    20270977.790    20270971.923
    888553.41849    690127.26647  21064815.125    21064823.625    21064817.152
   3393213.99049   2630889.12346  24054422.784    24054433.792    24054425.147
  -4819576.05049  -3738350.39646  21781107.383    21781116.452    21781109.372
   2027830.68949   1574809.05146  23233837.996    23233846.247    23233839.916
  -3269924.81649  -2533973.69347  21044218.740    21044226.902    21044221.320
  -4479583.94149  -3471514.59647  21662865.094    21662873.721    21662867.516
   2383777.78749   1849663.50244  24064024.911    24064035.404    24064027.119
 97 11 19 16 48 29.9980000  0  8G 1G21G 3G15G31G29G25G23
    827674.56949    643102.66047  20276240.967    20276248.904    20276243.033
    915673.70749    711259.95047  21069975.988    21069984.488    21069978.024
   3471792.25649   2692118.86646  24069375.656    24069386.852    24069378.067
  -4918636.79549  -3815540.57746  21762256.786    21762265.742    21762258.729
   2082209.53449   1617182.14146  23244186.068    23244194.279    23244187.916
  -3333241.21049  -2583311.10747  21032170.025    21032178.139    21032172.586
  -4570920.88049  -3542686.22447  21645484.271    21645492.889    21645486.670
   2441274.94348   1894466.41445  24074966.320    24074976.589    24074968.707
 97 11 19 16 48 59.9980000  0  8G 1G21G 3G15G31G29G25G23
    855733.79549    664966.99947  20281580.445    20281588.380    20281582.548
    943058.89949    732599.05147  21075187.259    21075195.746    21075189.274
   3550344.59449   2753328.40746  24084323.585    24084334.894    24084325.991
  -5017315.57849  -3892433.11946  21743478.765    21743487.725    21743480.758
   2136918.60949   1659812.54946  23254596.767    23254605.150    23254598.710
  -3396182.47849  -2632356.22547  21020192.724    21020200.776    21020195.270
  -4661880.87749  -3613564.13247  21628175.169    21628183.796    21628177.532
   2498931.33158   1939393.37755  24085938.359    24085948.479    24085940.317
 97 11 19 16 49 29.9980000  0  8G 1G21G 3G15G31G29G25G23
    884144.50849    687105.22647  20286986.804    20286994.731    20286988.939
    970716.62749    754150.51947  21080450.345    21080458.855    21080452.370
   3628866.34649   2814514.10945  24099265.718    24099277.080    24099268.139
  -5115619.50649  -3969033.56746  21724772.063    21724781.076    21724774.107
   2191936.72549   1702683.74846  23265066.428    23265074.725    23265068.284
  -3458770.81449  -2681126.33647  21008282.512    21008290.648    21008285.048
  -4752482.94349  -3684163.13747  21610934.188    21610942.820    21610936.494
   2556726.03658   1984428.14854  24096936.337    24096946.226    24096938.768
 97 11 19 16 49 59.9980000  0  8G 1G21G 3G15G31G29G25G23
    912909.14149    709519.23247  20292460.488    20292468.439    20292462.642
    998655.49149    775921.04747  21085766.974    21085775.465    21085768.922
   3707363.35849   2875680.52545  24114203.069    24114214.612    24114205.684
  -5213547.91649  -4045341.41146  21706136.699    21706145.854    21706138.882
   2247264.82849   1745796.50846  23275594.854    23275603.315    23275596.833
  -3521005.07349  -2729620.53847  20996439.679    20996447.906    20996442.246
  -4842735.65749  -3754489.91947  21593759.718    21593768.332    21593761.946
   2614650.02648   2029563.66745  24107958.709    24107969.223    24107961.469
 97 11 19 16 50 29.9980000  0  8G 1G21G 3G15G31G29G25G23
    942043.96049    732221.69047  20298004.696    20298012.617    20298006.821
   1026885.57449    797918.49547  21091138.944    21091147.462    21091140.928
   3785853.04549   2936841.21146  24129139.447    24129150.772    24129141.934
  -5311091.93049  -4121349.72846  21687574.618    21687583.816    21687576.823
   2302913.37249   1789158.97146  23286184.465    23286192.911    23286186.454
  -3582856.78049  -2777816.66147  20984669.645    20984677.927    20984672.240
  -4932633.38449  -3824540.08147  21576652.652    21576661.406    21576654.922
   2672713.59649   2074807.93945  24119008.205    24119018.609    24119010.558
 97 11 19 16 50 59.9980000  0  8G 1G21G 3G15G31G29G25G23
    971546.85749    755210.95547  20303618.892    20303626.846    20303621.030
   1055422.81549    820155.28047  21096569.488    21096577.947    21096571.402
   3864346.18949   2998004.60145  24144076.245    24144087.581    24144078.746
  -5408252.53449  -4197059.28746  21669085.640    21669094.768    21669087.754
   2358886.02949   1832773.97646  23296835.840    23296844.206    23296837.736
  -3644322.11049  -2825711.71547  20972973.083    20972981.466    20972975.743
  -5022170.25949  -3894309.06047  21559614.206    21559623.087    21559616.563
   2730929.61148   2120170.95845  24130086.604    24130097.065    24130089.085
 97 11 19 16 51 29.9980000  0  8G 1G21G 3G15G31G29G25G23
   1001419.63649    778488.44047  20309303.446    20309311.465    20309305.634
   1084276.76849    842638.86747  21102060.332    21102068.687    21102062.115
   3942843.21049   3059171.00345  24159013.792    24159025.121    24159016.356
  -5505026.58149  -4272467.63146  21650670.090    21650679.294    21650672.250
   2415182.44949   1876641.27146  23307548.762    23307557.211    23307550.584
  -3705403.11349  -2873307.29047  20961349.693    20961358.226    20961352.458
  -5111346.50349  -3963797.02447  21542644.499    21542653.403    21542646.837
   2789300.93848   2165655.03545  24141194.562    24141205.153    24141196.415
 97 11 19 16 51 59.9980000  0  8G 1G21G 3G15G31G29G25G23
   1031660.58149    802052.80347  20315058.180    20315066.147    20315060.311
   1113433.64149    865358.50047  21107608.760    21107617.046    21107610.506
   4021325.68349   3120326.06645  24173948.594    24173959.947    24173951.149
  -5601417.90249  -4347577.74746  21632327.389    21632336.644    21632329.582
   2471782.20949   1920744.93646  23318319.243    23318327.861    23318321.136
  -3766101.84449  -2920604.99347  20949799.110    20949807.737    20949801.886
  -5200165.47749  -4033006.59847  21525742.813    21525751.731    21525745.160
   2847833.48348   2211264.69944  24152333.325    24152343.401    24152335.166
 97 11 19 16 52 29.9980000  0  8G 1G21G 3G15G31G29G25G23
   1062271.01449    825905.07847  20320883.134    20320891.140    20320885.289
   1142887.48649    888309.54147  21113213.582    21113221.935    21113215.403
   4099794.52049   3181470.50545  24188880.896    24188892.172    24188883.427
  -5697427.96249  -4422390.77846  21614057.274    21614066.529    21614059.473
   2528658.45949   1965064.04446  23329142.494    23329151.070    23329144.389
  -3826430.69049  -2967614.48047  20938318.920    20938327.575    20938321.696
  -5288617.54749  -4101930.26747  21508910.910    21508919.872    21508913.325
   2906525.56148   2256998.70245  24163502.114    24163512.200    24163503.887
 97 11 19 16 52 59.9980000  0  8G 1G21G 3G15G31G29G25G23
   1093260.86349    850053.00147  20326780.331    20326788.343    20326782.450
   1172646.96349    911498.73347  21118876.712    21118884.974    21118878.439
   4178253.93649   3242607.59145  24203811.306    24203822.431    24203813.801
  -5793040.92049  -4496894.37647  21595862.721    21595872.006    21595864.945
   2585808.35049   2009596.37746  23340017.772    23340026.322    23340019.701
  -3886388.79949  -3014335.07847  20926909.335    20926917.961    20926912.087
  -5376685.07249  -4170554.28247  21492152.168    21492161.180    21492154.630
   2965377.03849   2302856.92745  24174700.851    24174711.167    24174703.069
 97 11 19 16 53 29.9980000  0  8G 1G21G 3G15G31G29G25G23
   1124604.51949    874476.61947  20332744.779    20332752.886    20332746.941
   1202681.88649    934902.56647  21124592.180    21124600.449    21124593.900
   4256674.05149   3303714.05645  24218734.295    24218745.279    24218736.767
  -5888280.63849  -4571107.13347  21577739.233    21577748.508    21577741.483
   2643208.86149   2054323.99946  23350940.652    23350949.306    23350942.716
  -3946008.96549  -3060792.33647  20915564.030    20915572.678    20915566.770
  -5464396.73149  -4238900.99947  21475461.095    21475470.228    21475463.622
   3024353.84248   2348812.80145  24185924.005    24185934.127    24185926.168
 97 11 19 16 53 59.9980000  0  8G 1G21G 3G15G31G29G25G23
   1156295.93549    899171.20747  20338775.485    20338783.606    20338777.599
   1232991.37049    958520.33147  21130359.781    21130368.141    21130361.614
   4335061.54649   3364795.07645  24233651.198    24233662.031    24233653.600
  -5983141.20749  -4645024.45447  21559688.006    21559697.192    21559690.157
   2700870.20849   2099254.86746  23361913.320    23361921.886    23361915.311
  -4005280.68449  -3106978.08947  20904285.037    20904293.717    20904287.751
  -5551732.82749  -4306955.06547  21458841.526    21458850.682    21458844.090
   3083469.12848   2394876.58445  24197173.443    24197183.577    24197175.627
 97 11 19 16 54 29.9980000  0  8G 1G21G 3G15G31G29G25G23
   1188340.83649    924141.23047  20344873.461    20344881.581    20344875.549
   1263591.66549    982364.70247  21136182.804    21136191.200    21136184.664
   4413432.42049   3425863.13945  24248565.033    24248575.727    24248567.279
  -6077604.84549  -4718632.48047  21541712.340    21541721.406    21541714.393
   2758813.74949   2144405.62446  23372939.772    23372948.206    23372941.664
  -4064180.48349  -3152874.02547  20893076.812    20893085.460    20893079.485
  -5638664.63049  -4374694.09947  21442299.017    21442308.081    21442301.534
   3142729.39848   2441053.30144  24208450.116    24208460.141    24208452.172
 97 11 19 16 54 59.9980000  0  8G 1G21G 3G15G31G29G25G23
   1220714.74149    949367.61747  20351033.979    20351042.136    20351036.074
   1294473.55949   1006428.50447  21142059.397    21142067.831    21142061.307
   4491765.69149   3486901.91145  24263471.395    24263482.263    24263473.720
  -6171676.78849  -4791935.29847  21523811.109    21523820.192    21523813.141
   2817041.20349   2189777.62246  23384020.080    23384028.550    23384021.959
  -4122711.24749  -3198482.39947  20881938.819    20881947.430    20881941.477
  -5725199.53249  -4442123.85247  21425831.914    21425840.994    21425834.493
   3202121.86848   2487333.07144  24219751.931    24219762.455    24219754.005
 97 11 19 16 55 29.9980000  0  8G 1G21G 3G15G31G29G25G23
   1253420.74449    974852.78247  20357257.660    20357265.882    20357259.809
   1325647.97349   1030720.24247  21147991.607    21148000.147    21147993.644
   4570076.82349   3547923.41645  24278373.691    24278384.550    24278375.999
  -6265336.72349  -4864917.07347  21505988.261    21505997.369    21505990.289
   2875572.13149   2235386.06646  23395158.053    23395166.633    23395160.015
  -4180845.72749  -3243781.99247  20870876.193    20870884.837    20870878.802
  -5811317.37049  -4509228.62447  21409444.254    21409453.278    21409446.845
   3261679.72248   2533741.68444  24231085.912    24231096.260    24231087.696
 97 11 19 16 55 59.9980000  0  8G 1G21G 3G15G31G29G25G23
   1286429.90049   1000574.16847  20363539.081    20363547.304    20363541.270
   1357094.92249   1055224.34447  21153975.841    21153984.345    21153977.837
   4648345.97849   3608912.21345  24293268.006    24293278.839    24293270.205
  -6358596.99849  -4937587.41947  21488241.399    21488250.586    21488243.456
   2934370.42549   2281202.86446  23406347.056    23406355.567    23406349.050
  -4238586.57749  -3288774.85247  20859888.435    20859897.156    20859891.028
  -5897033.65549  -4576020.49447  21393133.047    21393141.985    21393135.586
   3321387.98258   2580267.48954  24242448.286    24242458.072    24242449.962
 97 11 19 16 56 29.9980000  0  8G 1G21G 3G15G31G29G25G23
   1319724.55749   1026518.02347  20369874.972    20369883.059    20369877.088
   1388808.71749   1079936.38147  21160010.892    21160019.305    21160012.812
   4726550.88549   3669850.94045  24308149.995    24308160.791    24308152.117
  -6451469.45549  -5009955.57247  21470568.332    21470577.594    21470570.477
   2993415.18049   2327211.70346  23417582.954    23417591.403    23417584.976
  -4295949.98849  -3333473.60747  20848972.502    20848981.220    20848975.106
  -5982367.90149  -4642514.67447  21376894.467    21376903.387    21376897.027
   3381231.29548   2626898.56644  24253836.661    24253846.284    24253838.116
 97 11 19 16 56 59.9980000  0  8G 1G21G 3G15G31G29G25G23
   1353307.62049   1052686.61747  20376265.709    20376273.719    20376267.796
   1420784.38749   1104852.46347  21166095.745    21166104.083    21166097.603
   4804685.45049   3730734.87345  24323018.428    24323029.456    24323020.673
  -6543949.27349  -5082017.76447  21452970.077    21452979.307    21452972.214
   3052700.63249   2373408.10646  23428864.702    23428873.002    23428866.680
  -4352949.72649  -3377888.98847  20838125.781    20838134.472    20838128.423
  -6067328.00949  -4708717.31547  21360727.045    21360736.023    21360729.602
   3441219.93248   2673642.81644  24265252.109    24265261.604    24265253.777
 97 11 19 16 57 29.9980000  0  8G 1G21G 3G15G31G29G25G23
   1387193.32149   1079091.03847  20382713.976    20382721.984    20382716.087
   1453021.09849   1129971.96147  21172230.236    21172238.548    21172232.092
   4882750.97549   3791564.96945  24337873.704    24337884.822    24337876.042
  -6636036.34749  -5153773.91847  21435446.594    21435455.763    21435448.675
   3112217.65549   2419784.95846  23440190.468    23440198.797    23440192.410
  -4409590.53449  -3422024.67547  20827347.362    20827356.042    20827349.986
  -6151916.11749  -4774630.08547  21344630.493    21344639.414    21344632.987
   3501362.87158   2720507.32954  24276696.722    24276706.056    24276698.546
 97 11 19 16 57 59.9980000  0  8G 1G21G 3G15G31G29G25G23
   1421409.70649   1105753.13547  20389225.154    20389233.188    20389227.295
   1485544.15949   1155314.57947  21178419.239    21178427.484    21178421.024
   4960756.29749   3852348.17445  24352717.639    24352728.732    24352720.093
  -6727716.26549  -5225212.80947  21418000.469    21418009.674    21418002.599
   3171973.78749   2466348.11646  23451561.798    23451570.065    23451563.662
  -4465877.67649  -3465884.77647  20816636.262    20816644.920    20816638.846
  -6236110.47749  -4840236.04747  21328608.916    21328617.729    21328611.311
   3561659.53558   2767491.60054  24288170.598    24288180.550    24288172.302
 97 11 19 16 58 29.9980000  0  8G 1G21G 3G15G31G29G25G23
   1455948.46849   1132666.43847  20395797.651    20395805.734    20395799.845
   1518331.89449   1180863.43647  21184658.424    21184666.827    21184660.294
   5038670.71849   3913060.51345  24367544.316    24367555.371    24367546.867
  -6819009.80949  -5296350.63547  21400627.982    21400637.113    21400630.031
   3231949.76149   2513082.59546  23462974.840    23462983.224    23462976.778
  -4521849.49049  -3509499.17047  20805985.169    20805993.818    20805987.767
  -6319930.57149  -4905550.36947  21312658.446    21312667.237    21312660.906
   3622080.62258   2814572.83754  24299668.689    24299677.983    24299670.411
 97 11 19 16 58 59.9980000  0  8G 1G21G 3G15G31G29G25G23
   1490829.61949   1159846.54047  20402435.374    20402443.437    20402437.558
   1551374.53649   1206610.92647  21190946.260    21190954.647    21190948.135
   5116499.28849   3973705.98845  24382354.819    24382365.766    24382357.297
  -6909905.03649  -5367178.08247  21383331.172    21383340.381    21383333.253
   3292157.15349   2559997.39046  23474431.982    23474440.365    23474433.903
  -4577502.68249  -3552865.28947  20795394.700    20795403.350    20795397.302
  -6403367.27349  -4970565.93947  21296780.984    21296789.705    21296783.413
   3682629.45748   2861753.67044  24311191.064    24311200.051    24311192.477
 97 11 19 16 59 29.9980000  0  8G 1G21G 3G15G31G29G25G23
   1526060.66449   1187299.29347  20409139.694    20409147.696    20409141.827
   1584685.58849   1232567.57147  21197285.131    21197293.508    21197287.024
   5194257.94149   4034296.99145  24397151.813    24397162.703    24397154.376
  -7000386.59049  -5437683.18247  21366113.123    21366122.334    21366115.184
   3352617.03449   2607108.93346  23485937.182    23485945.568    23485939.051
  -4632814.72849  -3595965.57547  20784869.155    20784877.807    20784871.793
  -6486398.37349  -5035265.45047  21280980.689    21280989.354    21280983.082
   3743307.42458   2909035.08554  24322737.281    24322746.909    24322739.233
 97 11 19 16 59 59.9980000  0  8G 1G21G 3G15G31G29G25G23
   1561615.96549   1215004.72347  20415905.670    20415913.688    20415907.776
   1618269.27149   1258736.65747  21203675.870    21203684.275    21203677.792
   5271932.58949   4094822.48345  24411932.885    24411943.846    24411935.383
  -7090455.97649  -5507867.11547  21348973.566    21348982.718    21348975.579
   3413320.66849   2654410.40846  23497488.623    23497497.143    23497490.517
  -4687785.31849  -3638799.78647  20774408.682    20774417.256    20774411.265
  -6569029.19749  -5099653.06147  21265256.514    21265265.215    21265258.951
   3804100.96248   2956406.50544  24334306.223    24334315.682    24334308.292
 97 11 19 17  0 29.9980000  0  8G 1G21G 3G15G31G29G25G23
   1597471.82049   1242944.36147  20422728.753    20422736.869    20422730.898
   1652121.76949   1285115.20047  21210117.786    21210126.228    21210119.728
   5349520.32549   4155280.26045  24426697.507    24426708.683    24426700.043
  -7180111.95549  -5577728.91247  21331912.623    21331921.733    21331914.672
   3474264.50949   2701899.05846  23509085.928    23509094.475    23509087.705
  -4742402.79249  -3681358.84847  20764015.372    20764023.880    20764017.932
  -6651258.71049  -5163727.96347  21249608.736    21249617.463    21249611.205
   3865020.89048   3003876.46944  24345898.626    24345907.963    24345900.630
 97 11 19 17  0 59.9980000  0  8G 1G21G 3G15G31G29G25G23
   1633601.77749   1271097.59247  20429604.018    20429612.180    20429606.146
   1686245.59949   1311705.17547  21216611.386    21216619.787    21216613.296
   5427031.12649   4215678.08245  24441447.488    24441458.762    24441450.085
  -7269357.23749  -5647270.68747  21314929.848    21314938.900    21314931.856
   3535445.25849   2749572.29946  23520728.284    23520736.928    23520730.031
  -4796658.57949  -3723636.07047  20753690.884    20753699.311    20753693.448
  -6733086.23849  -5227489.63147  21234037.473    21234046.188    21234039.934
   3926071.12858   3051447.96054  24357516.089    24357526.082    24357518.332
 97 11 19 17  1 29.9980000  0  8G 1G21G 3G15G31G29G25G23
   1669983.42849   1299446.95347  20436527.229    20436535.377    20436529.332
   1720663.26049   1338524.11247  21223160.863    21223169.260    21223162.795
   5504466.18949   4276016.88445  24456183.210    24456194.634    24456185.674
  -7358192.91049  -5716493.28447  21298024.935    21298033.988    21298026.980
   3596843.42949   2797414.97546  23532411.863    23532420.672    23532413.759
  -4850541.62649  -3765622.84547  20743437.306    20743445.669    20743439.889
  -6814512.10249  -5290938.30647  21218542.577    21218551.322    21218545.097
   3987246.73858   3099117.13754  24369157.785    24369168.228    24369160.154
 97 11 19 17  1 59.9980000  0  8G 1G21G 3G15G31G29G25G23
   1706631.98049   1328004.28347  20443501.260    20443509.345    20443503.316
   1755385.39549   1365580.29747  21229768.302    21229776.662    21229770.244
   5581819.28949   4336291.81145  24470903.341    24470914.827    24470905.756
  -7446613.42449  -5785392.39147  21281199.056    21281208.116    21281201.144
   3658450.31349   2845420.28046  23544135.404    23544144.122    23544137.165
  -4904047.30849  -3807315.58447  20733255.548    20733263.853    20733258.135
  -6895527.53949  -5354067.16647  21203125.821    21203134.550    21203128.342
   4048565.72958   3146898.01954  24380827.066    24380836.870    24380828.706
 97 11 19 17  2 29.9980000  0  9G 1G21G 3G15G31G29G25G14G23
   1743547.33949   1356769.51447  20450526.104    20450534.090    20450528.071
   1790390.84149   1392857.24547  21236429.758    21236437.994    21236431.606
   5659087.01649   4396500.21145  24485607.194    24485618.707    24485609.593
  -7534623.49349  -5853971.65847  21264451.276    21264460.344    21264453.404
   3720256.49749   2893580.87846  23555896.810    23555905.545    23555898.499
  -4957183.42749  -3848720.34447  20723144.105    20723152.392    20723146.732
  -6976143.07249  -5416884.40847  21187785.196    21187793.894    21187787.730
  -2330082.54859  -1576781.73755  24803168.929    24803179.757    24803171.557
   4110022.40148   3194786.23044  24392521.675    24392531.917    24392523.477
 97 11 19 17  2 59.9980000  0  9G 1G21G 3G15G31G29G25G14G23
   1780744.36249   1385754.22347  20457604.427    20457612.433    20457606.456
   1825674.98449   1420351.35547  21243144.141    21243152.400    21243145.984
   5736255.42149   4456631.24145  24500292.020    24500303.466    24500294.370
  -7622217.75049  -5922226.91147  21247782.718    21247791.691    21247784.817
   3782263.67449   2941898.09346  23567696.262    23567705.197    23567698.046
  -5009951.56649  -3889838.35347  20713102.705    20713110.947    20713105.297
  -7056366.24449  -5479395.90947  21172519.265    21172527.916    21172521.798
  -2424101.46649  -1650043.21745  24785277.730    24785288.378    24785280.310
   4171604.29058   3242772.00054  24404240.425    24404251.159    24404241.936
 97 11 19 17  3 29.9980000  0  9G 1G21G 3G15G31G29G25G14G23
   1818233.88649   1414966.84747  20464738.479    20464746.406    20464740.496
   1861230.70149   1448057.07647  21249910.211    21249918.441    21249912.035
   5813288.65649   4516656.86345  24514951.230    24514963.010    24514953.408
  -7709397.14049  -5990158.89947  21231193.078    21231201.976    21231195.170
   3844451.74949   2990356.27346  23579530.262    23579539.329    23579532.164
  -5062372.69949  -3930685.97647  20703127.262    20703135.491    20703129.899
  -7136198.55649  -5541602.84447  21157327.709    21157336.328    21157330.238
  -2518170.13949  -1723343.53345  24767377.073    24767387.822    24767379.607
   4233293.19958   3290841.14654  24415979.271    24415990.218    24415980.858
